Location: Alafon
(8.4500°N, 4.2333°E)
Time: 01:38:31
(UTC+00:00)

Milstar 3 Cent rocket - Pass Details

Date: 05 July 2020
Orbit: 706 x 5147 km, 28.3° (Epoch: 06 August)

Event Time Altitude Azimuth Distance (km) Brightness Sun altitude
Rises 20:54:48 0° 294° (WNW) 3,187 6.1 -37.4°
Reaches altitude 10° 20:56:47 10° 292° (WNW) 2,395 5.2 -37.8°
Enters shadow 20:59:23 33° 284° (WNW) 1,501 3.8 -38.3°
